Time,TemperatureF,DewpointF,PressureIn,WindDirection,WindDirectionDegrees,WindSpeedMPH,WindSpeedGustMPH,Humidity,HourlyPrecipIn,Conditions,Clouds,dailyrainin,SoftwareType,DateUTC
2013-07-30 00:00:00,55.6,53.9,30.19,NW,315,0.0,0.0,94,0.00,,---,0.00,VWS V14.01,2013-07-30 04:00:00,
2013-07-30 00:01:00,55.6,53.9,30.19,SSW,213,0.0,0.0,94,0.00,,---,0.00,VWS V14.01,2013-07-30 04:01:00,
2013-07-30 00:02:00,55.4,53.7,30.19,SSW,213,0.0,0.0,94,0.00,,---,0.00,VWS V14.01,2013-07-30 04:02:00,
2013-07-30 00:07:00,55.3,53.6,30.19,SSW,213,0.0,0.0,94,0.00,,---,0.00,VWS V14.01,2013-07-30 04:07:00,
2013-07-30 00:10:00,55.3,53.9,30.19,NW,315,0.0,0.0,95,0.00,,---,0.00,VWS V14.01,2013-07-30 04:10:00,
2013-07-30 00:12:00,55.3,53.9,30.19,SSW,213,0.0,0.0,95,0.00,,---,0.00,VWS V14.01,2013-07-30 04:12:00,
2013-07-30 00:17:00,55.1,53.7,30.19,SSW,213,0.0,0.0,95,0.00,,---,0.00,VWS V14.01,2013-07-30 04:17:00,
2013-07-30 00:20:00,55.1,53.7,30.19,NW,315,0.0,0.0,95,0.00,,---,0.00,VWS V14.01,2013-07-30 04:20:00,
2013-07-30 00:22:00,55.0,53.6,30.19,SSW,213,0.0,0.0,95,0.00,,---,0.00,VWS V14.01,2013-07-30 04:22:00,
2013-07-30 00:27:00,55.0,53.9,30.19,SSW,213,0.0,0.0,96,0.00,,---,0.00,VWS V14.01,2013-07-30 04:27:00,
2013-07-30 00:30:00,55.0,53.9,30.19,NW,315,0.0,0.0,96,0.00,,---,0.00,VWS V14.01,2013-07-30 04:30:00,
2013-07-30 00:32:00,55.0,53.9,30.19,SSW,213,0.0,0.0,96,0.00,,---,0.00,VWS V14.01,2013-07-30 04:32:00,
2013-07-30 00:37:00,55.0,53.9,30.19,South,169,0.0,0.0,96,0.00,,---,0.00,VWS V14.01,2013-07-30 04:37:00,
2013-07-30 00:40:00,55.0,53.9,30.19,NW,315,0.0,0.0,96,0.00,,---,0.00,VWS V14.01,2013-07-30 04:40:00,
2013-07-30 00:42:00,55.0,53.9,30.19,South,169,0.0,0.0,96,0.00,,---,0.00,VWS V14.01,2013-07-30 04:42:00,
2013-07-30 00:47:00,55.0,53.9,30.19,South,169,0.0,0.0,96,0.00,,---,0.00,VWS V14.01,2013-07-30 04:47:00,
2013-07-30 00:50:00,55.0,53.9,30.19,NW,315,0.0,0.0,96,0.00,,---,0.00,VWS V14.01,2013-07-30 04:50:00,
2013-07-30 00:52:00,54.8,53.7,30.19,South,169,0.0,0.0,96,0.00,,---,0.00,VWS V14.01,2013-07-30 04:52:00,
2013-07-30 00:57:00,54.7,53.6,30.20,South,169,0.0,0.0,96,0.00,,---,0.00,VWS V14.01,2013-07-30 04:57:00,
2013-07-30 01:00:00,54.5,53.4,30.20,NW,315,0.0,0.0,96,0.00,,---,0.00,VWS V14.01,2013-07-30 05:00:00,
2013-07-30 01:03:00,54.5,53.4,30.19,South,169,0.0,0.0,96,0.00,,---,0.00,VWS V14.01,2013-07-30 05:03:00,
2013-07-30 01:08:00,54.5,53.7,30.20,South,169,0.0,0.0,97,0.00,,---,0.00,VWS V14.01,2013-07-30 05:08:00,
2013-07-30 01:10:00,54.5,53.7,30.20,NW,315,0.0,0.0,97,0.00,,---,0.00,VWS V14.01,2013-07-30 05:10:00,
2013-07-30 01:13:00,54.4,53.6,30.20,South,169,0.0,0.0,97,0.00,,---,0.00,VWS V14.01,2013-07-30 05:13:00,
2013-07-30 01:18:00,54.4,53.6,30.20,South,169,0.0,0.0,97,0.00,,---,0.00,VWS V14.01,2013-07-30 05:18:00,
2013-07-30 01:20:00,54.4,53.6,30.20,NW,315,0.0,0.0,97,0.00,,---,0.00,VWS V14.01,2013-07-30 05:20:00,
2013-07-30 01:23:00,54.2,53.4,30.20,South,169,0.0,0.0,97,0.00,,---,0.00,VWS V14.01,2013-07-30 05:23:00,
2013-07-30 01:28:00,54.2,53.4,30.20,South,169,0.0,0.0,97,0.00,,---,0.00,VWS V14.01,2013-07-30 05:28:00,
2013-07-30 01:30:00,54.2,53.4,30.20,NW,315,0.0,0.0,97,0.00,,---,0.00,VWS V14.01,2013-07-30 05:30:00,
2013-07-30 01:33:00,54.1,53.3,30.20,South,169,0.0,0.0,97,0.00,,---,0.00,VWS V14.01,2013-07-30 05:33:00,
2013-07-30 01:38:00,54.1,53.3,30.20,South,169,0.0,0.0,97,0.00,,---,0.00,VWS V14.01,2013-07-30 05:38:00,
2013-07-30 01:40:00,54.1,53.3,30.20,NW,315,0.0,0.0,97,0.00,,---,0.00,VWS V14.01,2013-07-30 05:40:00,
2013-07-30 01:43:00,53.9,53.1,30.20,South,169,0.0,0.0,97,0.00,,---,0.00,VWS V14.01,2013-07-30 05:43:00,
2013-07-30 01:48:00,53.9,53.1,30.20,South,169,0.0,0.0,97,0.00,,---,0.00,VWS V14.01,2013-07-30 05:48:00,
2013-07-30 01:50:00,53.8,53.0,30.20,NW,315,0.0,0.0,97,0.00,,---,0.00,VWS V14.01,2013-07-30 05:50:00,
2013-07-30 01:53:00,53.8,53.0,30.20,SSE,159,0.0,0.0,97,0.00,,---,0.00,VWS V14.01,2013-07-30 05:53:00,
2013-07-30 01:58:00,53.6,52.8,30.20,SSE,157,0.0,0.0,97,0.00,,---,0.00,VWS V14.01,2013-07-30 05:58:00,
2013-07-30 02:00:00,53.6,52.8,30.20,NW,315,0.0,0.0,97,0.00,,---,0.00,VWS V14.01,2013-07-30 06:00:00,
2013-07-30 02:03:00,53.5,52.7,30.20,SSE,157,0.0,0.0,97,0.00,,---,0.00,VWS V14.01,2013-07-30 06:03:00,
2013-07-30 02:08:00,53.5,52.7,30.20,SSE,157,0.0,0.0,97,0.00,,---,0.00,VWS V14.01,2013-07-30 06:08:00,
2013-07-30 02:10:00,53.3,52.5,30.20,NW,315,0.0,0.0,97,0.00,,---,0.00,VWS V14.01,2013-07-30 06:10:00,
2013-07-30 02:13:00,53.3,52.5,30.20,SSE,157,0.0,0.0,97,0.00,,---,0.00,VWS V14.01,2013-07-30 06:13:00,
2013-07-30 02:18:00,53.2,52.4,30.20,SSE,157,0.0,0.0,97,0.00,,---,0.00,VWS V14.01,2013-07-30 06:18:00,
2013-07-30 02:20:00,53.2,52.4,30.20,NW,315,0.0,0.0,97,0.00,,---,0.00,VWS V14.01,2013-07-30 06:20:00,
2013-07-30 02:23:00,53.2,52.4,30.20,SSE,157,0.0,0.0,97,0.00,,---,0.00,VWS V14.01,2013-07-30 06:23:00,
2013-07-30 02:28:00,53.1,52.3,30.20,SSE,157,0.0,0.0,97,0.00,,---,0.00,VWS V14.01,2013-07-30 06:28:00,
2013-07-30 02:30:00,53.1,52.3,30.20,NW,315,0.0,0.0,97,0.00,,---,0.00,VWS V14.01,2013-07-30 06:30:00,
2013-07-30 02:33:00,53.1,52.3,30.20,SSE,157,0.0,0.0,97,0.00,,---,0.00,VWS V14.01,2013-07-30 06:33:00,
2013-07-30 02:38:00,52.9,52.1,30.20,SSE,157,0.0,0.0,97,0.00,,---,0.00,VWS V14.01,2013-07-30 06:38:00,
2013-07-30 02:40:00,52.9,52.1,30.20,NW,315,0.0,0.0,97,0.00,,---,0.00,VWS V14.01,2013-07-30 06:40:00,
2013-07-30 02:43:00,52.8,52.2,30.20,SSE,157,0.0,0.0,98,0.00,,---,0.00,VWS V14.01,2013-07-30 06:43:00,
2013-07-30 02:48:00,52.8,52.2,30.20,SSE,157,0.0,0.0,98,0.00,,---,0.00,VWS V14.01,2013-07-30 06:48:00,
2013-07-30 02:50:00,52.8,52.2,30.20,NW,315,0.0,0.0,98,0.00,,---,0.00,VWS V14.01,2013-07-30 06:50:00,
2013-07-30 02:53:00,52.8,52.2,30.20,SSE,157,0.0,0.0,98,0.00,,---,0.00,VWS V14.01,2013-07-30 06:53:00,
2013-07-30 02:58:00,52.8,52.2,30.20,SSE,157,0.0,0.0,98,0.00,,---,0.00,VWS V14.01,2013-07-30 06:58:00,
2013-07-30 03:00:00,52.6,52.0,30.20,NW,315,0.0,0.0,98,0.00,,---,0.00,VWS V14.01,2013-07-30 07:00:00,
2013-07-30 03:03:00,52.6,52.0,30.20,SSE,162,0.0,0.0,98,0.00,,---,0.00,VWS V14.01,2013-07-30 07:03:00,
2013-07-30 03:08:00,52.5,52.0,30.19,SSE,162,0.0,0.0,98,0.00,,---,0.00,VWS V14.01,2013-07-30 07:08:00,
2013-07-30 03:10:00,52.5,52.0,30.19,NW,315,0.0,0.0,98,0.00,,---,0.00,VWS V14.01,2013-07-30 07:10:00,
2013-07-30 03:13:00,52.5,52.0,30.19,SSE,162,0.0,0.0,98,0.00,,---,0.00,VWS V14.01,2013-07-30 07:13:00,
2013-07-30 03:18:00,52.3,51.8,30.19,SSE,162,0.0,0.0,98,0.00,,---,0.00,VWS V14.01,2013-07-30 07:18:00,
2013-07-30 03:20:00,52.3,51.8,30.19,NW,315,0.0,0.0,98,0.00,,---,0.00,VWS V14.01,2013-07-30 07:20:00,
2013-07-30 03:23:00,52.3,51.8,30.20,SSE,162,0.0,0.0,98,0.00,,---,0.00,VWS V14.01,2013-07-30 07:23:00,
2013-07-30 03:28:00,52.2,51.7,30.20,SSE,162,0.0,0.0,98,0.00,,---,0.00,VWS V14.01,2013-07-30 07:28:00,
2013-07-30 03:30:00,52.0,51.5,30.20,NW,315,0.0,0.0,98,0.00,,---,0.00,VWS V14.01,2013-07-30 07:30:00,
2013-07-30 03:33:00,52.0,51.5,30.19,SSE,162,0.0,0.0,98,0.00,,---,0.00,VWS V14.01,2013-07-30 07:33:00,
2013-07-30 03:38:00,51.7,51.2,30.19,SSE,162,0.0,0.0,98,0.00,,---,0.00,VWS V14.01,2013-07-30 07:38:00,
2013-07-30 03:40:00,51.7,51.2,30.19,NW,315,0.0,0.0,98,0.00,,---,0.00,VWS V14.01,2013-07-30 07:40:00,
2013-07-30 03:43:00,51.6,51.1,30.19,SSE,162,0.0,0.0,98,0.00,,---,0.00,VWS V14.01,2013-07-30 07:43:00,
2013-07-30 03:48:00,51.6,51.1,30.19,SSE,162,0.0,0.0,98,0.00,,---,0.00,VWS V14.01,2013-07-30 07:48:00,
2013-07-30 03:50:00,51.6,51.1,30.19,NW,315,0.0,0.0,98,0.00,,---,0.00,VWS V14.01,2013-07-30 07:50:00,
2013-07-30 03:53:00,51.6,51.1,30.19,SSE,162,0.0,0.0,98,0.00,,---,0.00,VWS V14.01,2013-07-30 07:53:00,
2013-07-30 03:58:00,51.6,51.1,30.19,SSE,162,0.0,0.0,98,0.00,,---,0.00,VWS V14.01,2013-07-30 07:58:00,
2013-07-30 04:00:00,51.6,51.1,30.19,NW,315,0.0,0.0,98,0.00,,---,0.00,VWS V14.01,2013-07-30 08:00:00,
2013-07-30 04:03:00,51.6,51.1,30.19,SSE,162,0.0,0.0,98,0.00,,---,0.00,VWS V14.01,2013-07-30 08:03:00,
2013-07-30 04:08:00,51.7,51.2,30.19,SSE,162,0.0,0.0,98,0.00,,---,0.00,VWS V14.01,2013-07-30 08:08:00,
2013-07-30 04:10:00,51.7,51.2,30.19,NW,315,0.0,0.0,98,0.00,,---,0.00,VWS V14.01,2013-07-30 08:10:00,
2013-07-30 04:13:00,51.7,51.2,30.19,SSE,162,0.0,0.0,98,0.00,,---,0.00,VWS V14.01,2013-07-30 08:13:00,
2013-07-30 04:18:00,51.7,51.2,30.19,SSE,162,0.0,0.0,98,0.00,,---,0.00,VWS V14.01,2013-07-30 08:18:00,
2013-07-30 04:20:00,51.7,51.2,30.19,NW,315,0.0,0.0,98,0.00,,---,0.00,VWS V14.01,2013-07-30 08:20:00,
2013-07-30 04:23:00,51.7,51.2,30.19,SSE,162,0.0,0.0,98,0.00,,---,0.00,VWS V14.01,2013-07-30 08:23:00,
2013-07-30 04:28:00,51.6,51.1,30.19,SSE,162,0.0,0.0,98,0.00,,---,0.00,VWS V14.01,2013-07-30 08:28:00,
2013-07-30 04:30:00,51.6,51.1,30.19,NW,315,0.0,0.0,98,0.00,,---,0.00,VWS V14.01,2013-07-30 08:30:00,
2013-07-30 04:33:00,51.6,51.1,30.19,SSE,162,0.0,0.0,98,0.00,,---,0.00,VWS V14.01,2013-07-30 08:33:00,
2013-07-30 04:38:00,51.4,50.9,30.19,SSE,162,0.0,0.0,98,0.00,,---,0.00,VWS V14.01,2013-07-30 08:38:00,
2013-07-30 04:40:00,51.4,50.9,30.19,NW,315,0.0,0.0,98,0.00,,---,0.00,VWS V14.01,2013-07-30 08:40:00,
2013-07-30 04:43:00,51.3,50.8,30.19,SSE,162,0.0,0.0,98,0.00,,---,0.00,VWS V14.01,2013-07-30 08:43:00,
2013-07-30 04:48:00,51.3,50.8,30.19,SSE,162,0.0,0.0,98,0.00,,---,0.00,VWS V14.01,2013-07-30 08:48:00,
2013-07-30 04:50:00,51.3,50.8,30.19,NW,315,0.0,0.0,98,0.00,,---,0.00,VWS V14.01,2013-07-30 08:50:00,
2013-07-30 04:53:00,51.1,50.6,30.19,SSE,162,0.0,0.0,98,0.00,,---,0.00,VWS V14.01,2013-07-30 08:53:00,
2013-07-30 04:58:00,51.0,50.5,30.20,SSE,162,0.0,0.0,98,0.00,,---,0.00,VWS V14.01,2013-07-30 08:58:00,
2013-07-30 05:00:00,51.0,50.5,30.19,NW,315,0.0,0.0,98,0.00,,---,0.00,VWS V14.01,2013-07-30 09:00:00,
2013-07-30 05:03:00,51.0,50.5,30.20,SSE,162,0.0,0.0,98,0.00,,---,0.00,VWS V14.01,2013-07-30 09:03:00,
2013-07-30 05:08:00,51.0,50.5,30.20,SSE,162,0.0,0.0,98,0.00,,---,0.00,VWS V14.01,2013-07-30 09:08:00,
2013-07-30 05:10:00,50.8,50.3,30.20,NW,315,0.0,0.0,98,0.00,,---,0.00,VWS V14.01,2013-07-30 09:10:00,
2013-07-30 05:13:00,50.8,50.3,30.20,SSE,162,0.0,0.0,98,0.00,,---,0.00,VWS V14.01,2013-07-30 09:13:00,
2013-07-30 05:18:00,50.8,50.3,30.20,SSE,162,0.0,0.0,98,0.00,,---,0.00,VWS V14.01,2013-07-30 09:18:00,
2013-07-30 05:20:00,50.8,50.3,30.20,NW,315,0.0,0.0,98,0.00,,---,0.00,VWS V14.01,2013-07-30 09:20:00,
2013-07-30 05:23:00,51.0,50.5,30.20,SSE,162,0.0,0.0,98,0.00,,---,0.00,VWS V14.01,2013-07-30 09:23:00,
2013-07-30 05:28:00,51.1,50.6,30.20,SSE,162,0.0,0.0,98,0.00,,---,0.00,VWS V14.01,2013-07-30 09:28:00,
2013-07-30 05:30:00,51.1,50.6,30.20,NW,315,0.0,0.0,98,0.00,,---,0.00,VWS V14.01,2013-07-30 09:30:00,
2013-07-30 05:34:00,51.1,50.8,30.20,SSE,162,0.0,0.0,99,0.00,,---,0.00,VWS V14.01,2013-07-30 09:34:00,
2013-07-30 05:39:00,51.3,51.0,30.20,SSE,162,0.0,0.0,99,0.00,,---,0.00,VWS V14.01,2013-07-30 09:39:00,
2013-07-30 05:40:00,51.3,51.0,30.20,NW,315,0.0,0.0,99,0.00,,---,0.00,VWS V14.01,2013-07-30 09:40:00,
2013-07-30 05:44:00,51.6,51.3,30.21,SSE,163,0.0,0.0,99,0.00,,---,0.00,VWS V14.01,2013-07-30 09:44:00,
2013-07-30 05:49:00,51.7,51.4,30.21,South,178,0.0,0.0,99,0.00,,---,0.00,VWS V14.01,2013-07-30 09:49:00,
2013-07-30 05:50:00,51.7,51.4,30.21,NW,315,0.0,0.0,99,0.00,,---,0.00,VWS V14.01,2013-07-30 09:50:00,
2013-07-30 05:54:00,51.7,51.4,30.21,South,178,0.0,0.0,99,0.00,,---,0.00,VWS V14.01,2013-07-30 09:54:00,
2013-07-30 05:59:00,51.6,51.3,30.21,South,175,0.0,0.0,99,0.00,,---,0.00,VWS V14.01,2013-07-30 09:59:00,
2013-07-30 06:00:00,51.6,51.3,30.21,NW,315,0.0,0.0,99,0.00,,---,0.00,VWS V14.01,2013-07-30 10:00:00,
2013-07-30 06:04:00,51.4,51.1,30.21,South,175,0.0,0.0,99,0.00,,---,0.00,VWS V14.01,2013-07-30 10:04:00,
2013-07-30 06:09:00,51.3,51.0,30.21,South,175,0.0,0.0,99,0.00,,---,0.00,VWS V14.01,2013-07-30 10:09:00,
2013-07-30 06:10:00,51.3,51.0,30.22,NW,315,0.0,0.0,99,0.00,,---,0.00,VWS V14.01,2013-07-30 10:10:00,
2013-07-30 06:14:00,51.1,50.6,30.21,South,175,0.0,0.0,98,0.00,,---,0.00,VWS V14.01,2013-07-30 10:14:00,
2013-07-30 06:19:00,51.0,50.5,30.22,South,175,0.0,0.0,98,0.00,,---,0.00,VWS V14.01,2013-07-30 10:19:00,
2013-07-30 06:20:00,51.1,50.6,30.21,NW,315,0.0,0.0,98,0.00,,---,0.00,VWS V14.01,2013-07-30 10:20:00,
2013-07-30 06:24:00,51.3,51.0,30.22,South,172,0.0,0.0,99,0.00,,---,0.00,VWS V14.01,2013-07-30 10:24:00,
2013-07-30 06:29:00,51.3,51.0,30.22,South,172,0.0,0.0,99,0.00,,---,0.00,VWS V14.01,2013-07-30 10:29:00,
2013-07-30 06:30:00,51.3,51.0,30.22,NW,315,0.0,0.0,99,0.00,,---,0.00,VWS V14.01,2013-07-30 10:30:00,
2013-07-30 06:34:00,51.3,51.0,30.22,South,172,0.0,0.0,99,0.00,,---,0.00,VWS V14.01,2013-07-30 10:34:00,
2013-07-30 06:39:00,51.1,50.8,30.22,SSW,197,0.0,0.0,99,0.00,,---,0.00,VWS V14.01,2013-07-30 10:39:00,
2013-07-30 06:40:00,51.1,50.8,30.22,NW,315,0.0,0.0,99,0.00,,---,0.00,VWS V14.01,2013-07-30 10:40:00,
2013-07-30 06:44:00,51.1,50.8,30.22,NE,49,0.0,0.0,99,0.00,,---,0.00,VWS V14.01,2013-07-30 10:44:00,
2013-07-30 06:49:00,51.3,51.0,30.22,NE,49,0.0,0.0,99,0.00,,---,0.00,VWS V14.01,2013-07-30 10:49:00,
2013-07-30 06:50:00,51.4,51.1,30.22,NW,315,0.0,0.0,99,0.00,,---,0.00,VWS V14.01,2013-07-30 10:50:00,
2013-07-30 06:54:00,51.4,51.1,30.22,SSW,192,0.0,0.0,99,0.00,,---,0.00,VWS V14.01,2013-07-30 10:54:00,
2013-07-30 06:59:00,51.6,51.3,30.22,SSW,192,0.0,0.0,99,0.00,,---,0.00,VWS V14.01,2013-07-30 10:59:00,
2013-07-30 07:00:00,51.6,51.3,30.22,NW,315,0.0,0.0,99,0.00,,---,0.00,VWS V14.01,2013-07-30 11:00:00,
2013-07-30 07:04:00,51.9,51.6,30.22,South,180,0.0,0.0,99,0.00,,---,0.00,VWS V14.01,2013-07-30 11:04:00,
2013-07-30 07:09:00,52.2,51.9,30.22,South,186,0.0,0.0,99,0.00,,---,0.00,VWS V14.01,2013-07-30 11:09:00,
2013-07-30 07:10:00,52.2,51.9,30.22,NW,315,0.0,0.0,99,0.00,,---,0.00,VWS V14.01,2013-07-30 11:10:00,
2013-07-30 07:14:00,52.2,51.9,30.22,NE,43,0.0,0.0,99,0.00,,---,0.00,VWS V14.01,2013-07-30 11:14:00,
2013-07-30 07:19:00,52.3,52.0,30.23,SSW,193,0.0,0.0,99,0.01,,---,0.01,VWS V14.01,2013-07-30 11:19:00,
2013-07-30 07:20:00,52.3,52.0,30.23,NW,315,0.0,0.0,99,0.01,,---,0.01,VWS V14.01,2013-07-30 11:20:00,
2013-07-30 07:24:00,52.5,52.2,30.23,South,177,0.0,0.0,99,0.01,,---,0.01,VWS V14.01,2013-07-30 11:24:00,
2013-07-30 07:29:00,52.6,52.3,30.23,SSE,167,0.0,0.0,99,0.01,,---,0.01,VWS V14.01,2013-07-30 11:29:00,
2013-07-30 07:30:00,52.6,52.3,30.23,NW,315,0.0,0.0,99,0.01,,---,0.01,VWS V14.01,2013-07-30 11:30:00,
2013-07-30 07:34:00,52.8,52.5,30.23,SSE,165,0.0,0.0,99,0.01,,---,0.01,VWS V14.01,2013-07-30 11:34:00,
2013-07-30 07:39:00,53.1,52.8,30.23,South,186,0.0,0.0,99,0.01,,---,0.01,VWS V14.01,2013-07-30 11:39:00,
2013-07-30 07:40:00,53.1,52.8,30.23,NW,315,0.0,0.0,99,0.01,,---,0.01,VWS V14.01,2013-07-30 11:40:00,
2013-07-30 07:44:00,53.5,53.2,30.23,South,186,0.0,0.0,99,0.01,,---,0.01,VWS V14.01,2013-07-30 11:44:00,
2013-07-30 07:49:00,53.9,53.6,30.24,South,186,0.0,0.0,99,0.01,,---,0.01,VWS V14.01,2013-07-30 11:49:00,
2013-07-30 07:50:00,53.9,53.6,30.23,NW,315,0.0,0.0,99,0.01,,---,0.01,VWS V14.01,2013-07-30 11:50:00,
2013-07-30 07:54:00,54.4,54.1,30.23,South,186,0.0,0.0,99,0.01,,---,0.01,VWS V14.01,2013-07-30 11:54:00,
2013-07-30 07:59:00,54.7,54.4,30.23,South,186,0.0,0.0,99,0.01,,---,0.01,VWS V14.01,2013-07-30 11:59:00,
2013-07-30 08:00:00,54.7,54.4,30.23,NW,315,0.0,0.0,99,0.01,,---,0.01,VWS V14.01,2013-07-30 12:00:00,
2013-07-30 08:04:00,55.1,54.8,30.23,South,186,0.0,0.0,99,0.01,,---,0.01,VWS V14.01,2013-07-30 12:04:00,
2013-07-30 08:09:00,55.7,55.4,30.23,South,186,0.0,0.0,99,0.01,,---,0.01,VWS V14.01,2013-07-30 12:09:00,
2013-07-30 08:10:00,55.7,55.4,30.23,NW,315,0.0,0.0,99,0.01,,---,0.01,VWS V14.01,2013-07-30 12:10:00,
2013-07-30 08:14:00,56.2,55.9,30.23,SSW,200,0.0,0.0,99,0.01,,---,0.01,VWS V14.01,2013-07-30 12:14:00,
2013-07-30 08:19:00,56.3,55.8,30.23,SSE,161,0.0,0.0,98,0.01,,---,0.01,VWS V14.01,2013-07-30 12:19:00,
2013-07-30 08:20:00,56.5,55.9,30.23,NW,315,0.0,0.0,98,0.01,,---,0.01,VWS V14.01,2013-07-30 12:20:00,
2013-07-30 08:25:00,56.6,56.0,30.23,SSE,167,0.0,0.0,98,0.00,,---,0.01,VWS V14.01,2013-07-30 12:25:00,
2013-07-30 08:30:00,57.0,56.4,30.23,South,169,0.0,0.0,98,0.00,,---,0.01,VWS V14.01,2013-07-30 12:30:00,
2013-07-30 08:35:00,57.5,56.7,30.23,SSW,192,0.0,0.0,97,0.00,,---,0.01,VWS V14.01,2013-07-30 12:35:00,
2013-07-30 08:40:00,58.0,56.9,30.23,SSE,165,0.0,0.0,96,0.00,,---,0.01,VWS V14.01,2013-07-30 12:40:00,
2013-07-30 08:45:00,58.6,57.5,30.23,SSW,192,0.0,0.0,96,0.00,,---,0.01,VWS V14.01,2013-07-30 12:45:00,
2013-07-30 08:50:00,58.9,57.5,30.23,SSE,167,0.0,0.0,95,0.00,,---,0.01,VWS V14.01,2013-07-30 12:50:00,
2013-07-30 08:55:00,59.0,57.3,30.23,South,183,0.0,0.0,94,0.00,,---,0.01,VWS V14.01,2013-07-30 12:55:00,
2013-07-30 09:00:00,59.0,56.7,30.23,South,172,0.0,0.0,92,0.00,,---,0.01,VWS V14.01,2013-07-30 13:00:00,
2013-07-30 09:05:00,59.3,57.0,30.23,SSE,167,0.0,0.0,92,0.00,,---,0.01,VWS V14.01,2013-07-30 13:05:00,
2013-07-30 09:10:00,59.5,57.2,30.22,SE,130,0.0,0.0,92,0.00,,---,0.01,VWS V14.01,2013-07-30 13:10:00,
2013-07-30 09:15:00,59.8,57.5,30.22,SE,125,0.0,0.0,92,0.00,,---,0.01,VWS V14.01,2013-07-30 13:15:00,
2013-07-30 09:20:00,59.8,57.2,30.22,SE,142,0.0,0.0,91,0.00,,---,0.01,VWS V14.01,2013-07-30 13:20:00,
2013-07-30 09:25:00,60.1,57.2,30.22,SE,142,0.0,0.0,90,0.00,,---,0.01,VWS V14.01,2013-07-30 13:25:00,
2013-07-30 09:30:00,60.1,57.2,30.22,SE,142,0.0,0.0,90,0.00,,---,0.01,VWS V14.01,2013-07-30 13:30:00,
2013-07-30 09:35:00,60.2,57.0,30.22,South,179,0.0,0.0,89,0.00,,---,0.01,VWS V14.01,2013-07-30 13:35:00,
2013-07-30 09:40:00,60.2,57.0,30.23,South,171,0.0,0.0,89,0.00,,---,0.01,VWS V14.01,2013-07-30 13:40:00,
2013-07-30 09:45:00,60.2,57.0,30.23,South,174,0.0,0.0,89,0.00,,---,0.01,VWS V14.01,2013-07-30 13:45:00,
2013-07-30 09:50:00,60.2,57.0,30.23,South,174,0.0,0.0,89,0.00,,---,0.01,VWS V14.01,2013-07-30 13:50:00,
2013-07-30 09:55:00,60.4,57.2,30.23,South,174,0.0,0.0,89,0.00,,---,0.01,VWS V14.01,2013-07-30 13:55:00,
2013-07-30 10:00:00,60.5,57.2,30.23,South,174,0.0,0.0,89,0.00,,---,0.01,VWS V14.01,2013-07-30 14:00:00,
2013-07-30 10:05:00,60.7,57.4,30.23,South,177,0.0,0.0,89,0.00,,---,0.01,VWS V14.01,2013-07-30 14:05:00,
2013-07-30 10:10:00,61.0,57.7,30.23,SSE,159,0.0,0.0,89,0.00,,---,0.01,VWS V14.01,2013-07-30 14:10:00,
2013-07-30 10:15:00,61.3,58.0,30.23,South,171,0.0,0.0,89,0.00,,---,0.01,VWS V14.01,2013-07-30 14:15:00,
2013-07-30 10:20:00,61.6,58.0,30.22,SE,127,0.0,0.0,88,0.00,,---,0.01,VWS V14.01,2013-07-30 14:20:00,
2013-07-30 10:25:00,61.8,57.9,30.22,SE,146,0.0,0.0,87,0.00,,---,0.01,VWS V14.01,2013-07-30 14:25:00,
2013-07-30 10:30:00,62.0,57.8,30.22,SE,140,0.0,0.0,86,0.00,,---,0.01,VWS V14.01,2013-07-30 14:30:00,
2013-07-30 10:35:00,62.1,57.9,30.22,SE,141,0.0,0.0,86,0.00,,---,0.01,VWS V14.01,2013-07-30 14:35:00,
2013-07-30 10:40:00,62.3,57.7,30.22,SE,142,0.0,0.0,85,0.00,,---,0.01,VWS V14.01,2013-07-30 14:40:00,
2013-07-30 10:45:00,62.3,57.7,30.22,SE,142,0.0,0.0,85,0.00,,---,0.01,VWS V14.01,2013-07-30 14:45:00,
2013-07-30 10:50:00,62.3,57.1,30.22,SE,142,0.0,0.0,83,0.00,,---,0.01,VWS V14.01,2013-07-30 14:50:00,
2013-07-30 10:55:00,62.4,57.5,30.22,SE,142,0.0,0.0,84,0.00,,---,0.01,VWS V14.01,2013-07-30 14:55:00,
2013-07-30 11:00:00,62.3,57.1,30.23,SE,142,0.0,0.0,83,0.00,,---,0.01,VWS V14.01,2013-07-30 15:00:00,
2013-07-30 11:05:00,62.3,57.1,30.23,SE,142,0.0,0.0,83,0.00,,---,0.01,VWS V14.01,2013-07-30 15:05:00,
2013-07-30 11:10:00,62.3,57.1,30.23,SE,142,0.0,0.0,83,0.00,,---,0.01,VWS V14.01,2013-07-30 15:10:00,
2013-07-30 11:15:00,62.3,57.4,30.23,SE,142,0.0,0.0,84,0.00,,---,0.01,VWS V14.01,2013-07-30 15:15:00,
2013-07-30 11:20:00,62.1,57.2,30.23,SE,142,0.0,0.0,84,0.00,,---,0.01,VWS V14.01,2013-07-30 15:20:00,
2013-07-30 11:25:00,62.0,57.5,30.23,SE,142,0.0,0.0,85,0.00,,---,0.01,VWS V14.01,2013-07-30 15:25:00,
2013-07-30 11:30:00,62.0,57.8,30.24,SE,142,0.0,0.0,86,0.00,,---,0.01,VWS V14.01,2013-07-30 15:30:00,
2013-07-30 11:35:00,61.8,57.6,30.24,SE,142,0.0,0.0,86,0.00,,---,0.01,VWS V14.01,2013-07-30 15:35:00,
2013-07-30 11:40:00,61.6,57.7,30.23,SE,142,0.0,0.0,87,0.00,,---,0.01,VWS V14.01,2013-07-30 15:40:00,
2013-07-30 11:45:00,61.5,57.9,30.24,South,169,0.0,0.0,88,0.00,,---,0.01,VWS V14.01,2013-07-30 15:45:00,
2013-07-30 11:50:00,61.2,57.6,30.23,South,169,0.0,0.0,88,0.00,,---,0.01,VWS V14.01,2013-07-30 15:50:00,
2013-07-30 11:55:00,61.0,57.7,30.24,SSE,167,0.0,0.0,89,0.00,,---,0.01,VWS V14.01,2013-07-30 15:55:00,
2013-07-30 12:00:00,60.9,58.0,30.24,SSE,150,0.0,0.0,90,0.00,,---,0.01,VWS V14.01,2013-07-30 16:00:00,
2013-07-30 12:05:00,60.9,58.0,30.23,SSE,150,0.0,0.0,90,0.00,,---,0.01,VWS V14.01,2013-07-30 16:05:00,
2013-07-30 12:10:00,60.9,58.0,30.23,SSE,150,0.0,0.0,90,0.00,,---,0.01,VWS V14.01,2013-07-30 16:10:00,
2013-07-30 12:15:00,60.9,58.0,30.23,SSE,167,0.0,0.0,90,0.00,,---,0.01,VWS V14.01,2013-07-30 16:15:00,
2013-07-30 12:20:00,60.9,58.0,30.23,SSE,167,0.0,0.0,90,0.00,,---,0.01,VWS V14.01,2013-07-30 16:20:00,
2013-07-30 12:25:00,60.9,58.0,30.23,SSE,167,0.0,0.0,90,0.00,,---,0.01,VWS V14.01,2013-07-30 16:25:00,
2013-07-30 12:30:00,61.0,58.0,30.23,SSE,167,0.0,0.0,90,0.00,,---,0.01,VWS V14.01,2013-07-30 16:30:00,
2013-07-30 12:36:00,61.0,58.0,30.23,SSE,167,0.0,0.0,90,0.00,,---,0.01,VWS V14.01,2013-07-30 16:36:00,
2013-07-30 12:40:00,61.0,58.0,30.23,NW,315,0.0,0.0,90,0.00,,---,0.01,VWS V14.01,2013-07-30 16:40:00,
2013-07-30 12:41:00,61.0,58.0,30.23,SSE,167,0.0,0.0,90,0.00,,---,0.01,VWS V14.01,2013-07-30 16:41:00,
2013-07-30 12:46:00,61.0,58.0,30.23,SSE,167,0.0,0.0,90,0.00,,---,0.01,VWS V14.01,2013-07-30 16:46:00,
2013-07-30 12:50:00,61.0,58.4,30.23,NW,315,0.0,0.0,91,0.00,,---,0.01,VWS V14.01,2013-07-30 16:50:00,
2013-07-30 12:51:00,61.0,58.4,30.23,SSE,167,0.0,0.0,91,0.00,,---,0.01,VWS V14.01,2013-07-30 16:51:00,
2013-07-30 12:56:00,61.0,58.4,30.23,SSE,167,0.0,0.0,91,0.00,,---,0.01,VWS V14.01,2013-07-30 16:56:00,
2013-07-30 13:00:00,61.0,58.4,30.23,NW,315,0.0,0.0,91,0.00,,---,0.01,VWS V14.01,2013-07-30 17:00:00,
2013-07-30 13:01:00,61.0,58.4,30.23,SSE,166,0.0,0.0,91,0.00,,---,0.01,VWS V14.01,2013-07-30 17:01:00,
2013-07-30 13:06:00,60.9,58.0,30.22,East,98,0.0,0.0,90,0.00,,---,0.01,VWS V14.01,2013-07-30 17:06:00,
2013-07-30 13:10:00,61.2,58.6,30.22,NW,315,0.0,0.0,91,0.00,,---,0.01,VWS V14.01,2013-07-30 17:10:00,
2013-07-30 13:11:00,61.2,58.6,30.23,ESE,109,0.0,0.0,91,0.00,,---,0.01,VWS V14.01,2013-07-30 17:11:00,
2013-07-30 13:16:00,61.6,59.3,30.23,ESE,109,0.0,0.0,92,0.00,,---,0.01,VWS V14.01,2013-07-30 17:16:00,
2013-07-30 13:20:00,62.1,59.8,30.22,NW,315,0.0,0.0,92,0.00,,---,0.01,VWS V14.01,2013-07-30 17:20:00,
2013-07-30 13:22:00,62.3,59.6,30.22,ESE,109,0.0,0.0,91,0.00,,---,0.01,VWS V14.01,2013-07-30 17:22:00,
2013-07-30 13:27:00,62.4,59.1,30.22,ESE,109,0.0,0.0,89,0.00,,---,0.01,VWS V14.01,2013-07-30 17:27:00,
2013-07-30 13:30:00,62.7,59.4,30.22,NW,315,0.0,0.0,89,0.00,,---,0.01,VWS V14.01,2013-07-30 17:30:00,
2013-07-30 13:32:00,62.9,59.0,30.22,ESE,109,0.0,0.0,87,0.00,,---,0.01,VWS V14.01,2013-07-30 17:32:00,
2013-07-30 13:37:00,63.4,59.2,30.22,ESE,113,0.0,0.0,86,0.00,,---,0.01,VWS V14.01,2013-07-30 17:37:00,
2013-07-30 13:40:00,63.7,58.8,30.22,NW,315,0.0,0.0,84,0.00,,---,0.01,VWS V14.01,2013-07-30 17:40:00,
2013-07-30 13:42:00,63.9,58.6,30.22,ESE,113,0.0,0.0,83,0.00,,---,0.01,VWS V14.01,2013-07-30 17:42:00,
2013-07-30 13:47:00,64.3,58.7,30.22,ESE,113,0.0,0.0,82,0.00,,---,0.01,VWS V14.01,2013-07-30 17:47:00,
2013-07-30 13:50:00,64.7,58.7,30.22,NW,315,0.0,0.0,81,0.00,,---,0.01,VWS V14.01,2013-07-30 17:50:00,
2013-07-30 13:52:00,64.8,58.1,30.22,ESE,113,0.0,0.0,79,0.00,,---,0.01,VWS V14.01,2013-07-30 17:52:00,
2013-07-30 13:57:00,65.3,58.3,30.21,ESE,114,0.0,0.0,78,0.00,,---,0.01,VWS V14.01,2013-07-30 17:57:00,
2013-07-30 14:00:00,65.6,58.9,30.21,NW,315,0.0,0.0,79,0.00,,---,0.01,VWS V14.01,2013-07-30 18:00:00,
2013-07-30 14:02:00,65.6,58.6,30.21,South,172,0.0,0.0,78,0.00,,---,0.01,VWS V14.01,2013-07-30 18:02:00,
2013-07-30 14:07:00,65.8,58.0,30.21,South,170,0.0,0.0,76,0.00,,---,0.01,VWS V14.01,2013-07-30 18:07:00,
2013-07-30 14:10:00,66.0,59.0,30.21,NW,315,0.0,0.0,78,0.00,,---,0.01,VWS V14.01,2013-07-30 18:10:00,
2013-07-30 14:12:00,66.1,59.4,30.20,South,171,0.0,0.0,79,0.00,,---,0.01,VWS V14.01,2013-07-30 18:12:00,
2013-07-30 14:17:00,66.3,59.2,30.20,SSE,159,0.0,0.0,78,0.00,,---,0.01,VWS V14.01,2013-07-30 18:17:00,
2013-07-30 14:20:00,66.4,59.0,30.20,NW,315,0.0,0.0,77,0.00,,---,0.01,VWS V14.01,2013-07-30 18:20:00,
2013-07-30 14:22:00,66.6,59.5,30.20,South,171,0.0,0.0,78,0.00,,---,0.01,VWS V14.01,2013-07-30 18:22:00,
2013-07-30 14:27:00,67.3,59.8,30.20,SE,127,0.0,0.0,77,0.00,,---,0.01,VWS V14.01,2013-07-30 18:27:00,
2013-07-30 14:30:00,67.8,60.7,30.20,NW,315,0.0,0.0,78,0.00,,---,0.01,VWS V14.01,2013-07-30 18:30:00,
2013-07-30 14:32:00,68.1,59.9,30.20,East,94,0.0,0.0,75,0.00,,---,0.01,VWS V14.01,2013-07-30 18:32:00,
2013-07-30 14:37:00,68.8,60.6,30.19,SSE,149,0.0,0.0,75,0.00,,---,0.01,VWS V14.01,2013-07-30 18:37:00,
2013-07-30 14:40:00,69.1,59.7,30.20,NW,315,0.0,0.0,72,0.00,,---,0.01,VWS V14.01,2013-07-30 18:40:00,
2013-07-30 14:42:00,69.4,61.1,30.20,SW,229,0.0,0.0,75,0.00,,---,0.01,VWS V14.01,2013-07-30 18:42:00,
2013-07-30 14:47:00,70.3,59.7,30.20,West,281,0.0,0.0,69,0.00,,---,0.01,VWS V14.01,2013-07-30 18:47:00,
2013-07-30 14:50:00,70.4,60.6,30.20,NW,315,0.0,0.0,71,0.00,,---,0.01,VWS V14.01,2013-07-30 18:50:00,
2013-07-30 14:52:00,70.6,61.1,30.20,SW,236,0.0,0.0,72,0.00,,---,0.01,VWS V14.01,2013-07-30 18:52:00,
2013-07-30 14:57:00,71.3,58.9,30.20,SW,227,0.0,0.0,65,0.00,,---,0.01,VWS V14.01,2013-07-30 18:57:00,
2013-07-30 15:00:00,71.6,59.2,30.20,NW,315,0.0,0.0,65,0.00,,---,0.01,VWS V14.01,2013-07-30 19:00:00,
2013-07-30 15:02:00,72.0,60.9,30.20,NE,45,0.0,0.0,68,0.00,,---,0.01,VWS V14.01,2013-07-30 19:02:00,
2013-07-30 15:07:00,72.5,60.1,30.20,SW,223,0.0,0.0,65,0.00,,---,0.01,VWS V14.01,2013-07-30 19:07:00,
2013-07-30 15:10:00,72.3,59.0,30.20,NW,315,0.0,0.0,63,0.00,,---,0.01,VWS V14.01,2013-07-30 19:10:00,
2013-07-30 15:12:00,71.8,58.1,30.20,NNW,329,0.0,0.0,62,0.00,,---,0.01,VWS V14.01,2013-07-30 19:12:00,
2013-07-30 15:17:00,71.5,60.0,30.19,West,269,0.0,0.0,67,0.00,,---,0.01,VWS V14.01,2013-07-30 19:17:00,
2013-07-30 15:20:00,71.6,58.8,30.19,NW,315,0.0,0.0,64,0.00,,---,0.01,VWS V14.01,2013-07-30 19:20:00,
2013-07-30 15:22:00,71.8,58.1,30.19,WSW,254,0.0,0.0,62,0.00,,---,0.01,VWS V14.01,2013-07-30 19:22:00,
2013-07-30 15:28:00,72.0,58.3,30.19,SE,146,0.0,0.0,62,0.00,,---,0.01,VWS V14.01,2013-07-30 19:28:00,
2013-07-30 15:30:00,72.0,58.7,30.19,NW,315,0.0,0.0,63,0.00,,---,0.01,VWS V14.01,2013-07-30 19:30:00,
2013-07-30 15:33:00,72.1,60.5,30.18,NNW,332,0.0,0.0,67,0.00,,---,0.01,VWS V14.01,2013-07-30 19:33:00,
2013-07-30 15:38:00,72.8,60.4,30.18,North,350,0.0,0.0,65,0.00,,---,0.01,VWS V14.01,2013-07-30 19:38:00,
2013-07-30 15:40:00,72.7,58.9,30.18,NW,315,0.0,0.0,62,0.00,,---,0.01,VWS V14.01,2013-07-30 19:40:00,
2013-07-30 15:43:00,72.5,57.4,30.18,SW,227,0.0,0.0,59,0.00,,---,0.01,VWS V14.01,2013-07-30 19:43:00,
2013-07-30 15:48:00,72.5,57.8,30.18,SW,227,0.0,0.0,60,0.00,,---,0.01,VWS V14.01,2013-07-30 19:48:00,
2013-07-30 15:50:00,72.5,57.4,30.18,NW,315,0.0,0.0,59,0.00,,---,0.01,VWS V14.01,2013-07-30 19:50:00,
2013-07-30 15:53:00,72.7,57.6,30.18,SW,232,0.0,0.0,59,0.00,,---,0.01,VWS V14.01,2013-07-30 19:53:00,
2013-07-30 15:58:00,72.8,58.1,30.18,WSW,245,0.0,0.0,60,0.00,,---,0.01,VWS V14.01,2013-07-30 19:58:00,
2013-07-30 16:00:00,73.0,58.8,30.18,NW,315,0.0,0.0,61,0.00,,---,0.01,VWS V14.01,2013-07-30 20:00:00,
2013-07-30 16:03:00,73.0,56.4,30.17,SSW,209,0.0,0.0,56,0.00,,---,0.01,VWS V14.01,2013-07-30 20:03:00,
2013-07-30 16:08:00,73.3,57.2,30.17,SW,225,0.0,0.0,57,0.00,,---,0.01,VWS V14.01,2013-07-30 20:08:00,
2013-07-30 16:10:00,73.2,58.5,30.17,NW,315,0.0,0.0,60,0.00,,---,0.01,VWS V14.01,2013-07-30 20:10:00,
2013-07-30 16:13:00,73.2,56.6,30.17,SW,224,0.0,0.0,56,0.00,,---,0.01,VWS V14.01,2013-07-30 20:13:00,
2013-07-30 16:18:00,73.3,57.2,30.17,SSE,150,0.0,0.0,57,0.00,,---,0.01,VWS V14.01,2013-07-30 20:18:00,
2013-07-30 16:20:00,73.2,58.0,30.17,NW,315,0.0,0.0,59,0.00,,---,0.01,VWS V14.01,2013-07-30 20:20:00,
2013-07-30 16:23:00,73.5,57.8,30.17,WSW,258,0.0,0.0,58,0.00,,---,0.01,VWS V14.01,2013-07-30 20:23:00,
2013-07-30 16:28:00,74.0,57.3,30.17,West,269,0.0,0.0,56,0.00,,---,0.01,VWS V14.01,2013-07-30 20:28:00,
2013-07-30 16:30:00,73.9,56.7,30.17,NW,315,0.0,0.0,55,0.00,,---,0.01,VWS V14.01,2013-07-30 20:30:00,
2013-07-30 16:33:00,73.7,58.5,30.17,West,268,0.0,0.0,59,0.00,,---,0.01,VWS V14.01,2013-07-30 20:33:00,
2013-07-30 16:38:00,73.3,58.6,30.17,West,267,0.0,0.0,60,0.00,,---,0.01,VWS V14.01,2013-07-30 20:38:00,
2013-07-30 16:40:00,73.3,57.7,30.16,NW,315,0.0,0.0,58,0.00,,---,0.01,VWS V14.01,2013-07-30 20:40:00,
2013-07-30 16:43:00,73.5,58.3,30.16,West,266,0.0,0.0,59,0.00,,---,0.01,VWS V14.01,2013-07-30 20:43:00,
2013-07-30 16:48:00,74.2,55.5,30.16,SSW,213,0.0,0.0,52,0.00,,---,0.01,VWS V14.01,2013-07-30 20:48:00,
2013-07-30 16:50:00,74.4,55.7,30.16,NW,315,0.0,0.0,52,0.00,,---,0.01,VWS V14.01,2013-07-30 20:50:00,
2013-07-30 16:53:00,74.6,57.4,30.16,SSW,213,0.0,0.0,55,0.00,,---,0.01,VWS V14.01,2013-07-30 20:53:00,
2013-07-30 16:58:00,75.3,57.0,30.16,SW,223,0.0,0.0,53,0.00,,---,0.01,VWS V14.01,2013-07-30 20:58:00,
2013-07-30 17:00:00,75.4,56.6,30.16,NW,315,0.0,0.0,52,0.00,,---,0.01,VWS V14.01,2013-07-30 21:00:00,
2013-07-30 17:03:00,75.6,57.3,30.16,SE,138,0.0,0.0,53,0.00,,---,0.01,VWS V14.01,2013-07-30 21:03:00,
2013-07-30 17:08:00,74.9,57.2,30.16,ENE,74,0.0,0.0,54,0.00,,---,0.01,VWS V14.01,2013-07-30 21:08:00,
2013-07-30 17:10:00,74.4,56.7,30.16,NW,315,0.0,0.0,54,0.00,,---,0.01,VWS V14.01,2013-07-30 21:10:00,
2013-07-30 17:13:00,73.9,57.2,30.16,NE,55,0.0,0.0,56,0.00,,---,0.01,VWS V14.01,2013-07-30 21:13:00,
2013-07-30 17:18:00,73.7,56.5,30.15,South,170,0.0,0.0,55,0.00,,---,0.01,VWS V14.01,2013-07-30 21:18:00,
2013-07-30 17:20:00,74.0,55.8,30.15,NW,315,0.0,0.0,53,0.00,,---,0.01,VWS V14.01,2013-07-30 21:20:00,
2013-07-30 17:23:00,74.2,56.5,30.15,ESE,113,0.0,0.0,54,0.00,,---,0.01,VWS V14.01,2013-07-30 21:23:00,
2013-07-30 17:28:00,74.7,58.0,30.15,South,181,0.0,0.0,56,0.00,,---,0.01,VWS V14.01,2013-07-30 21:28:00,
2013-07-30 17:30:00,75.1,56.8,30.15,NW,315,0.0,0.0,53,0.00,,---,0.01,VWS V14.01,2013-07-30 21:30:00,
2013-07-30 17:33:00,75.3,56.5,30.15,WNW,298,0.0,0.0,52,0.00,,---,0.01,VWS V14.01,2013-07-30 21:33:00,
2013-07-30 17:38:00,75.6,55.7,30.15,South,180,0.0,0.0,50,0.00,,---,0.01,VWS V14.01,2013-07-30 21:38:00,
2013-07-30 17:40:00,75.6,55.1,30.15,NW,315,0.0,0.0,49,0.00,,---,0.01,VWS V14.01,2013-07-30 21:40:00,
2013-07-30 17:43:00,75.8,55.3,30.15,South,169,0.0,0.0,49,0.00,,---,0.01,VWS V14.01,2013-07-30 21:43:00,
2013-07-30 17:48:00,76.0,56.0,30.15,South,169,0.0,0.0,50,0.00,,---,0.01,VWS V14.01,2013-07-30 21:48:00,
2013-07-30 17:50:00,76.0,55.5,30.15,NW,315,0.0,0.0,49,0.00,,---,0.01,VWS V14.01,2013-07-30 21:50:00,
2013-07-30 17:53:00,75.8,54.7,30.15,South,169,0.0,0.0,48,0.00,,---,0.01,VWS V14.01,2013-07-30 21:53:00,
2013-07-30 17:58:00,76.0,54.3,30.15,SW,226,0.0,0.0,47,0.00,,---,0.01,VWS V14.01,2013-07-30 21:58:00,
2013-07-30 18:00:00,76.0,54.9,30.15,NW,315,0.0,0.0,48,0.00,,---,0.01,VWS V14.01,2013-07-30 22:00:00,
2013-07-30 18:03:00,75.8,56.9,30.15,West,275,0.0,0.0,52,0.00,,---,0.01,VWS V14.01,2013-07-30 22:03:00,
2013-07-30 18:08:00,75.8,56.9,30.14,West,276,0.0,0.0,52,0.00,,---,0.01,VWS V14.01,2013-07-30 22:08:00,
2013-07-30 18:10:00,75.8,55.9,30.14,NW,315,0.0,0.0,50,0.00,,---,0.01,VWS V14.01,2013-07-30 22:10:00,
2013-07-30 18:13:00,75.8,54.7,30.14,West,280,0.0,0.0,48,0.00,,---,0.01,VWS V14.01,2013-07-30 22:13:00,
2013-07-30 18:18:00,75.8,56.9,30.14,West,280,0.0,0.0,52,0.00,,---,0.01,VWS V14.01,2013-07-30 22:18:00,
2013-07-30 18:20:00,76.0,56.6,30.14,NW,315,0.0,0.0,51,0.00,,---,0.01,VWS V14.01,2013-07-30 22:20:00,
2013-07-30 18:23:00,76.3,56.3,30.14,West,281,0.0,0.0,50,0.00,,---,0.01,VWS V14.01,2013-07-30 22:23:00,
2013-07-30 18:28:00,76.7,55.5,30.14,West,281,0.0,0.0,48,0.00,,---,0.01,VWS V14.01,2013-07-30 22:28:00,
2013-07-30 18:30:00,76.7,56.7,30.14,NW,315,0.0,0.0,50,0.00,,---,0.01,VWS V14.01,2013-07-30 22:30:00,
2013-07-30 18:33:00,76.7,55.5,30.14,West,281,0.0,0.0,48,0.00,,---,0.01,VWS V14.01,2013-07-30 22:33:00,
2013-07-30 18:38:00,76.7,55.5,30.14,WSW,253,0.0,0.0,48,0.00,,---,0.01,VWS V14.01,2013-07-30 22:38:00,
2013-07-30 18:40:00,76.7,55.5,30.14,NW,315,0.0,0.0,48,0.00,,---,0.01,VWS V14.01,2013-07-30 22:40:00,
2013-07-30 18:43:00,76.7,55.0,30.14,WSW,247,0.0,0.0,47,0.00,,---,0.01,VWS V14.01,2013-07-30 22:43:00,
2013-07-30 18:48:00,76.7,56.7,30.14,WSW,253,0.0,0.0,50,0.00,,---,0.01,VWS V14.01,2013-07-30 22:48:00,
2013-07-30 18:50:00,76.7,55.5,30.14,NW,315,0.0,0.0,48,0.00,,---,0.01,VWS V14.01,2013-07-30 22:50:00,
2013-07-30 18:53:00,76.7,55.5,30.14,WSW,253,0.0,0.0,48,0.00,,---,0.01,VWS V14.01,2013-07-30 22:53:00,
2013-07-30 18:58:00,76.7,56.1,30.14,WSW,253,0.0,0.0,49,0.00,,---,0.01,VWS V14.01,2013-07-30 22:58:00,
2013-07-30 19:00:00,76.8,56.2,30.14,NW,315,0.0,0.0,49,0.00,,---,0.01,VWS V14.01,2013-07-30 23:00:00,
2013-07-30 19:03:00,76.8,56.2,30.14,WSW,253,0.0,0.0,49,0.00,,---,0.01,VWS V14.01,2013-07-30 23:03:00,
2013-07-30 19:08:00,76.8,56.2,30.14,WSW,253,0.0,0.0,49,0.00,,---,0.01,VWS V14.01,2013-07-30 23:08:00,
2013-07-30 19:10:00,76.8,57.3,30.14,NW,315,0.0,0.0,51,0.00,,---,0.01,VWS V14.01,2013-07-30 23:10:00,
2013-07-30 19:13:00,76.8,59.9,30.14,WSW,253,0.0,0.0,56,0.00,,---,0.01,VWS V14.01,2013-07-30 23:13:00,
2013-07-30 19:18:00,76.3,58.5,30.13,WSW,253,0.0,0.0,54,0.00,,---,0.01,VWS V14.01,2013-07-30 23:18:00,
2013-07-30 19:20:00,76.3,57.9,30.14,NW,315,0.0,0.0,53,0.00,,---,0.01,VWS V14.01,2013-07-30 23:20:00,
2013-07-30 19:23:00,76.1,59.3,30.14,WSW,257,0.0,0.0,56,0.00,,---,0.01,VWS V14.01,2013-07-30 23:23:00,
2013-07-30 19:28:00,75.6,59.3,30.14,North,355,0.0,0.0,57,0.00,,---,0.01,VWS V14.01,2013-07-30 23:28:00,
2013-07-30 19:30:00,75.3,59.0,30.14,NW,315,0.0,0.0,57,0.00,,---,0.01,VWS V14.01,2013-07-30 23:30:00,
2013-07-30 19:34:00,74.7,59.4,30.14,NNW,331,0.0,0.0,59,0.00,,---,0.01,VWS V14.01,2013-07-30 23:34:00,
2013-07-30 19:38:00,74.4,60.1,30.13,NNW,334,0.0,0.0,61,0.00,,---,0.01,VWS V14.01,2013-07-30 23:38:00,
2013-07-30 19:40:00,74.2,59.9,30.13,NW,315,0.0,0.0,61,0.00,,---,0.01,VWS V14.01,2013-07-30 23:40:00,
2013-07-30 19:44:00,73.9,59.2,30.13,NNW,344,0.0,0.0,60,0.00,,---,0.01,VWS V14.01,2013-07-30 23:44:00,
2013-07-30 19:48:00,72.8,59.0,30.13,NNW,344,0.0,0.0,62,0.00,,---,0.01,VWS V14.01,2013-07-30 23:48:00,
2013-07-30 19:50:00,72.7,59.4,30.13,NW,315,0.0,0.0,63,0.00,,---,0.01,VWS V14.01,2013-07-30 23:50:00,
2013-07-30 19:54:00,72.0,58.7,30.13,North,360,0.0,0.0,63,0.00,,---,0.01,VWS V14.01,2013-07-30 23:54:00,
2013-07-30 19:59:00,71.6,59.2,30.13,North,350,0.0,0.0,65,0.00,,---,0.01,VWS V14.01,2013-07-30 23:59:00,
2013-07-30 20:00:00,71.5,59.1,30.13,NW,315,0.0,0.0,65,0.00,,---,0.01,VWS V14.01,2013-07-31 00:00:00,
2013-07-30 20:04:00,71.1,59.2,30.13,North,355,0.0,0.0,66,0.00,,---,0.01,VWS V14.01,2013-07-31 00:04:00,
2013-07-30 20:09:00,70.8,59.3,30.13,North,355,0.0,0.0,67,0.00,,---,0.01,VWS V14.01,2013-07-31 00:09:00,
2013-07-30 20:10:00,70.6,58.7,30.13,NW,315,0.0,0.0,66,0.00,,---,0.01,VWS V14.01,2013-07-31 00:10:00,
2013-07-30 20:14:00,70.4,59.3,30.13,North,355,0.0,0.0,68,0.00,,---,0.01,VWS V14.01,2013-07-31 00:14:00,
2013-07-30 20:19:00,70.3,58.8,30.13,North,355,0.0,0.0,67,0.00,,---,0.01,VWS V14.01,2013-07-31 00:19:00,
2013-07-30 20:20:00,70.1,58.7,30.13,NW,315,0.0,0.0,67,0.00,,---,0.01,VWS V14.01,2013-07-31 00:20:00,
2013-07-30 20:24:00,69.6,58.6,30.13,North,350,0.0,0.0,68,0.00,,---,0.01,VWS V14.01,2013-07-31 00:24:00,
2013-07-30 20:29:00,69.1,58.5,30.13,North,355,0.0,0.0,69,0.00,,---,0.01,VWS V14.01,2013-07-31 00:29:00,
2013-07-30 20:30:00,68.9,58.3,30.13,NW,315,0.0,0.0,69,0.00,,---,0.01,VWS V14.01,2013-07-31 00:30:00,
2013-07-30 20:34:00,68.6,58.0,30.13,North,355,0.0,0.0,69,0.00,,---,0.01,VWS V14.01,2013-07-31 00:34:00,
2013-07-30 20:39:00,68.3,58.5,30.13,North,355,0.0,0.0,71,0.00,,---,0.01,VWS V14.01,2013-07-31 00:39:00,
2013-07-30 20:40:00,68.1,58.3,30.13,NW,315,0.0,0.0,71,0.00,,---,0.01,VWS V14.01,2013-07-31 00:40:00,
2013-07-30 20:44:00,67.9,58.2,30.13,North,355,0.0,0.0,71,0.00,,---,0.01,VWS V14.01,2013-07-31 00:44:00,
2013-07-30 20:49:00,67.6,57.9,30.13,North,355,0.0,0.0,71,0.00,,---,0.01,VWS V14.01,2013-07-31 00:49:00,
2013-07-30 20:50:00,67.6,57.9,30.13,NW,315,0.0,0.0,71,0.00,,---,0.01,VWS V14.01,2013-07-31 00:50:00,
2013-07-30 20:54:00,67.4,58.1,30.13,North,355,0.0,0.0,72,0.00,,---,0.01,VWS V14.01,2013-07-31 00:54:00,
2013-07-30 20:59:00,67.1,57.8,30.13,North,355,0.0,0.0,72,0.00,,---,0.01,VWS V14.01,2013-07-31 00:59:00,
2013-07-30 21:00:00,67.1,57.8,30.13,NW,315,0.0,0.0,72,0.00,,---,0.01,VWS V14.01,2013-07-31 01:00:00,
2013-07-30 21:04:00,66.8,57.9,30.12,North,355,0.0,0.0,73,0.00,,---,0.01,VWS V14.01,2013-07-31 01:04:00,
2013-07-30 21:09:00,66.6,58.4,30.12,North,355,0.0,0.0,75,0.00,,---,0.01,VWS V14.01,2013-07-31 01:09:00,
2013-07-30 21:10:00,66.4,58.2,30.12,NW,315,0.0,0.0,75,0.00,,---,0.01,VWS V14.01,2013-07-31 01:10:00,
2013-07-30 21:14:00,66.4,58.2,30.13,North,355,0.0,0.0,75,0.00,,---,0.01,VWS V14.01,2013-07-31 01:14:00,
2013-07-30 21:19:00,66.3,58.2,30.13,North,355,0.0,0.0,75,0.00,,---,0.01,VWS V14.01,2013-07-31 01:19:00,
2013-07-30 21:20:00,66.3,58.2,30.13,NW,315,0.0,0.0,75,0.00,,---,0.01,VWS V14.01,2013-07-31 01:20:00,
2013-07-30 21:24:00,66.1,59.0,30.13,North,355,0.0,0.0,78,0.00,,---,0.01,VWS V14.01,2013-07-31 01:24:00,
2013-07-30 21:29:00,66.0,59.0,30.13,North,355,0.0,0.0,78,0.00,,---,0.01,VWS V14.01,2013-07-31 01:29:00,
2013-07-30 21:30:00,65.8,58.8,30.13,NW,315,0.0,0.0,78,0.00,,---,0.01,VWS V14.01,2013-07-31 01:30:00,
2013-07-30 21:34:00,65.6,58.9,30.13,North,355,0.0,0.0,79,0.00,,---,0.01,VWS V14.01,2013-07-31 01:34:00,
2013-07-30 21:39:00,65.5,58.8,30.13,North,355,0.0,0.0,79,0.00,,---,0.01,VWS V14.01,2013-07-31 01:39:00,
2013-07-30 21:40:00,65.5,58.8,30.13,NW,315,0.0,0.0,79,0.00,,---,0.01,VWS V14.01,2013-07-31 01:40:00,
2013-07-30 21:44:00,65.2,58.5,30.13,North,355,0.0,0.0,79,0.00,,---,0.01,VWS V14.01,2013-07-31 01:44:00,
2013-07-30 21:49:00,65.0,58.3,30.13,North,355,0.0,0.0,79,0.00,,---,0.01,VWS V14.01,2013-07-31 01:49:00,
2013-07-30 21:50:00,65.0,58.7,30.13,NW,315,0.0,0.0,80,0.00,,---,0.01,VWS V14.01,2013-07-31 01:50:00,
2013-07-30 21:54:00,64.8,58.5,30.13,North,355,0.0,0.0,80,0.00,,---,0.01,VWS V14.01,2013-07-31 01:54:00,
2013-07-30 21:59:00,64.5,58.5,30.13,North,355,0.0,0.0,81,0.00,,---,0.01,VWS V14.01,2013-07-31 01:59:00,
2013-07-30 22:00:00,64.5,58.5,30.13,NW,315,0.0,0.0,81,0.00,,---,0.01,VWS V14.01,2013-07-31 02:00:00,
2013-07-30 22:04:00,64.3,58.3,30.13,North,355,0.0,0.0,81,0.00,,---,0.01,VWS V14.01,2013-07-31 02:04:00,
2013-07-30 22:09:00,64.0,58.4,30.13,North,355,0.0,0.0,82,0.00,,---,0.01,VWS V14.01,2013-07-31 02:09:00,
2013-07-30 22:10:00,64.0,58.4,30.13,NW,315,0.0,0.0,82,0.00,,---,0.01,VWS V14.01,2013-07-31 02:10:00,
2013-07-30 22:14:00,63.9,58.0,30.13,North,355,0.0,0.0,81,0.00,,---,0.01,VWS V14.01,2013-07-31 02:14:00,
2013-07-30 22:19:00,63.7,58.1,30.13,North,355,0.0,0.0,82,0.00,,---,0.01,VWS V14.01,2013-07-31 02:19:00,
2013-07-30 22:20:00,63.5,57.9,30.13,NW,315,0.0,0.0,82,0.00,,---,0.01,VWS V14.01,2013-07-31 02:20:00,
2013-07-30 22:24:00,63.4,57.8,30.13,North,355,0.0,0.0,82,0.00,,---,0.01,VWS V14.01,2013-07-31 02:24:00,
2013-07-30 22:29:00,63.1,57.5,30.13,North,355,0.0,0.0,82,0.00,,---,0.01,VWS V14.01,2013-07-31 02:29:00,
2013-07-30 22:30:00,63.1,57.9,30.13,NW,315,0.0,0.0,83,0.00,,---,0.01,VWS V14.01,2013-07-31 02:30:00,
2013-07-30 22:34:00,62.9,58.0,30.13,North,355,0.0,0.0,84,0.00,,---,0.01,VWS V14.01,2013-07-31 02:34:00,
2013-07-30 22:39:00,62.6,57.7,30.13,North,355,0.0,0.0,84,0.00,,---,0.01,VWS V14.01,2013-07-31 02:39:00,
2013-07-30 22:40:00,62.6,57.7,30.13,NW,315,0.0,0.0,84,0.00,,---,0.01,VWS V14.01,2013-07-31 02:40:00,
2013-07-30 22:44:00,62.4,57.8,30.13,North,355,0.0,0.0,85,0.00,,---,0.01,VWS V14.01,2013-07-31 02:44:00,
2013-07-30 22:49:00,62.1,57.9,30.13,North,355,0.0,0.0,86,0.00,,---,0.01,VWS V14.01,2013-07-31 02:49:00,
2013-07-30 22:50:00,62.0,57.8,30.12,NW,315,0.0,0.0,86,0.00,,---,0.01,VWS V14.01,2013-07-31 02:50:00,
2013-07-30 22:54:00,61.8,57.6,30.12,North,355,0.0,0.0,86,0.00,,---,0.01,VWS V14.01,2013-07-31 02:54:00,
2013-07-30 22:59:00,61.5,57.3,30.12,North,355,0.0,0.0,86,0.00,,---,0.01,VWS V14.01,2013-07-31 02:59:00,
2013-07-30 23:00:00,61.5,57.3,30.12,NW,315,0.0,0.0,86,0.00,,---,0.01,VWS V14.01,2013-07-31 03:00:00,
2013-07-30 23:04:00,61.3,57.4,30.12,North,355,0.0,0.0,87,0.00,,---,0.01,VWS V14.01,2013-07-31 03:04:00,
2013-07-30 23:09:00,61.2,57.3,30.12,North,355,0.0,0.0,87,0.00,,---,0.01,VWS V14.01,2013-07-31 03:09:00,
2013-07-30 23:10:00,61.0,57.4,30.12,NW,315,0.0,0.0,88,0.00,,---,0.01,VWS V14.01,2013-07-31 03:10:00,
2013-07-30 23:14:00,60.9,57.3,30.12,North,355,0.0,0.0,88,0.00,,---,0.01,VWS V14.01,2013-07-31 03:14:00,
2013-07-30 23:19:00,60.7,57.4,30.12,North,355,0.0,0.0,89,0.00,,---,0.01,VWS V14.01,2013-07-31 03:19:00,
2013-07-30 23:20:00,60.5,57.2,30.12,NW,315,0.0,0.0,89,0.00,,---,0.01,VWS V14.01,2013-07-31 03:20:00,
2013-07-30 23:24:00,60.4,57.2,30.12,North,355,0.0,0.0,89,0.00,,---,0.01,VWS V14.01,2013-07-31 03:24:00,
2013-07-30 23:29:00,60.2,57.0,30.12,North,355,0.0,0.0,89,0.00,,---,0.01,VWS V14.01,2013-07-31 03:29:00,
2013-07-30 23:30:00,60.2,57.0,30.12,NW,315,0.0,0.0,89,0.00,,---,0.01,VWS V14.01,2013-07-31 03:30:00,
2013-07-30 23:34:00,60.1,57.2,30.12,North,355,0.0,0.0,90,0.00,,---,0.01,VWS V14.01,2013-07-31 03:34:00,
2013-07-30 23:39:00,59.9,57.3,30.12,North,355,0.0,0.0,91,0.00,,---,0.01,VWS V14.01,2013-07-31 03:39:00,
2013-07-30 23:40:00,59.9,57.3,30.12,NW,315,0.0,0.0,91,0.00,,---,0.01,VWS V14.01,2013-07-31 03:40:00,
2013-07-30 23:44:00,59.8,57.2,30.12,North,355,0.0,0.0,91,0.00,,---,0.01,VWS V14.01,2013-07-31 03:44:00,
2013-07-30 23:49:00,59.6,57.3,30.12,North,355,0.0,0.0,92,0.00,,---,0.01,VWS V14.01,2013-07-31 03:49:00,
2013-07-30 23:50:00,59.6,57.3,30.12,NW,315,0.0,0.0,92,0.00,,---,0.01,VWS V14.01,2013-07-31 03:50:00,
2013-07-30 23:54:00,59.5,57.2,30.12,North,355,0.0,0.0,92,0.00,,---,0.01,VWS V14.01,2013-07-31 03:54:00,
2013-07-30 23:59:00,59.3,57.0,30.12,North,355,0.0,0.0,92,0.00,,---,0.01,VWS V14.01,2013-07-31 03:59:00,